Change the Weather History Date:

Friday, October 11, 2013

  Actual Average Record
Temperature  
Mean Temperature 71 °F 66 °F  
Max Temperature 83 °F 78 °F 94 °F (1963)
Min Temperature 59 °F 55 °F 35 °F (1932)
Degree Days  
Heating Degree Days 0 2  
Month to date heating degree days 9 19  
Since 1 July heating degree days 9 30  
Cooling Degree Days 6 4  
Month to date cooling degree days 66 51  
Year to date cooling degree days 2318 2145  
Growing Degree Days 20 (Base 50)    
Moisture  
Dew Point 63 °F    
Average Humidity 76    
Maximum Humidity 97    
Minimum Humidity 55    
Precipitation  
Precipitation 0.00 in 0.15 in 4.99 in (2001)
Month to date precipitation 0.44 1.56  
Year to date precipitation 29.88 36.41  
Snow  
Snow 0.00 in - - ()
Month to date snowfall 0.0  
Since 1 July snowfall 0.0  
Since 1 September snowfall 0.0  
Snow Depth 0.00 in    
Sea Level Pressure  
Sea Level Pressure 29.95 in    
Wind  
Wind Speed 8 mph (SSE)    
Max Wind Speed 15 mph    
Max Gust Speed 20 mph    
Visibility 9 miles    
Events      
T = Trace of Precipitation, MM = Missing Value Source: NWS Daily Summary

Daily Weather History Graph

Daily Weather History Graph

Search for Another Location

Airport or City:

Trip Planner

Search our weather history database for the weather conditions in past years. The results will help you decide how hot, cold, wet, or windy it might be!

Date:

Astronomy

Oct. 11, 2013 Rise Set
Actual Time 7:17 AM CDT 6:46 PM CDT
Civil Twilight 6:52 AM CDT 7:11 PM CDT
Nautical Twilight 6:23 AM CDT 7:40 PM CDT
Astronomical Twilight 5:55 AM CDT 8:09 PM CDT
Moon 1:51 PM CDT (10/11) No Moon Set
Length of Visible Light 12h 19m
Length of Day
11h 29m
Waxing Crescent, 47% of the Moon is Illuminated
Oct 11
Waxing Crescent
Oct 11
First Quarter
Oct 18
Full
Oct 26
Last Quarter
Nov 3
New

Hourly Weather History & Observations

Time (CDT) Temp. Heat Index Dew Point Humidity Pressure Visibility Wind Dir Wind Speed Gust Speed Precip Events Conditions
12:53 AM 63.0 °F - 59.0 °F 87% 29.96 in 10.0 mi SE 5.8 mph - N/A   Clear
1:53 AM 61.0 °F - 59.0 °F 93% 29.96 in 7.0 mi East 3.5 mph - N/A   Clear
2:53 AM 61.0 °F - 59.0 °F 93% 29.94 in 8.0 mi SE 8.1 mph - N/A   Clear
3:53 AM 63.0 °F - 59.0 °F 87% 29.94 in 10.0 mi ESE 3.5 mph - N/A   Clear
4:53 AM 59.0 °F - 57.9 °F 96% 29.96 in 6.0 mi Calm Calm - N/A   Clear
5:53 AM 63.0 °F - 60.1 °F 90% 29.97 in 8.0 mi South 8.1 mph - N/A   Clear
6:53 AM 63.0 °F - 61.0 °F 93% 29.97 in 8.0 mi South 8.1 mph - N/A   Clear
7:53 AM 64.0 °F - 62.1 °F 93% 29.97 in 5.0 mi South 6.9 mph - N/A   Clear
8:53 AM 68.0 °F - 63.0 °F 84% 29.99 in 8.0 mi South 8.1 mph - N/A   Clear
9:53 AM 72.0 °F - 64.0 °F 76% 30.01 in 10.0 mi South 10.4 mph - N/A   Clear
10:53 AM 73.9 °F - 64.9 °F 73% 30.00 in 10.0 mi South 9.2 mph - N/A   Clear
11:53 AM 78.1 °F - 64.9 °F 64% 29.99 in 10.0 mi South 8.1 mph - N/A   Clear
12:53 PM 80.1 °F 81.7 °F 64.0 °F 58% 29.96 in 10.0 mi SSE 8.1 mph - N/A   Partly Cloudy
1:53 PM 81.0 °F 82.5 °F 64.0 °F 56% 29.94 in 10.0 mi South 6.9 mph - N/A   Clear
2:53 PM 82.9 °F 84.6 °F 64.9 °F 54% 29.91 in 10.0 mi South 11.5 mph - N/A   Scattered Clouds
3:53 PM 82.0 °F 84.1 °F 66.0 °F 58% 29.89 in 10.0 mi SSE 11.5 mph - N/A   Clear
4:53 PM 82.0 °F 83.8 °F 64.9 °F 56% 29.90 in 10.0 mi SSE 13.8 mph - N/A   Clear
5:53 PM 80.1 °F 81.9 °F 64.9 °F 60% 29.89 in 10.0 mi SSE 8.1 mph - N/A   Clear
6:53 PM 75.9 °F - 66.0 °F 71% 29.91 in 10.0 mi SSE 4.6 mph - N/A   Clear
7:53 PM 73.9 °F - 64.9 °F 73% 29.91 in 10.0 mi SE 5.8 mph - N/A   Clear
8:53 PM 72.0 °F - 64.9 °F 78% 29.92 in 10.0 mi SE 4.6 mph - N/A   Clear
9:53 PM 72.0 °F - 64.9 °F 78% 29.93 in 10.0 mi SSE 6.9 mph - N/A   Clear
10:53 PM 73.0 °F - 64.0 °F 73% 29.94 in 10.0 mi SSE 9.2 mph - N/A   Mostly Cloudy
11:53 PM 73.0 °F - 64.0 °F 73% 29.93 in 10.0 mi SSE 10.4 mph - N/A   Mostly Cloudy